DKFGT ZZZZ-LIPB

Flight info

Callsign DKFGT
Flight time N/A
Altitude 9000
Route 4744N01226E DCT 4734N01208E DCT M1 DCT LOWIS DCT BR DCT
Aircraft DV20/L-V/L

Departure

Time N/A
Airport ZZZZ

Arrival

Time 2026-04-22 19:10
Airport Bolzano Airport (LIPB)
Time Latitude Longitude Altitude Speed Heading
2026-04-22 18:06 47.72784 12.43385 1856 ft 0 kts 56°
2026-04-22 18:11 47.72842 12.43516 1854 ft 24 kts 57°
2026-04-22 18:11 47.73032 12.43934 1874 ft 68 kts 55°
2026-04-22 18:12 47.73393 12.44320 2105 ft 67 kts 342°
2026-04-22 18:12 47.73307 12.43767 2249 ft 80 kts 211°
2026-04-22 18:12 47.73008 12.43493 2402 ft 80 kts 215°
2026-04-22 18:12 47.72542 12.42845 2769 ft 70 kts 239°
2026-04-22 18:13 47.72397 12.42186 2976 ft 77 kts 264°
2026-04-22 18:13 47.72402 12.41289 3026 ft 96 kts 275°
2026-04-22 18:13 47.72236 12.40444 3307 ft 88 kts 227°
2026-04-22 18:13 47.71659 12.40018 3486 ft 96 kts 195°
2026-04-22 18:14 47.71003 12.39786 3703 ft 92 kts 184°
2026-04-22 18:14 47.70350 12.39735 3844 ft 95 kts 177°
2026-04-22 18:14 47.69719 12.39619 4068 ft 92 kts 188°
2026-04-22 18:14 47.69106 12.39445 4282 ft 84 kts 192°
2026-04-22 18:15 47.68531 12.39144 4467 ft 91 kts 192°
2026-04-22 18:15 47.68018 12.38655 4780 ft 90 kts 228°
2026-04-22 18:15 47.67671 12.37863 4981 ft 94 kts 241°
2026-04-22 18:15 47.67388 12.36984 5133 ft 97 kts 246°
2026-04-22 18:16 47.67325 12.36781 5190 ft 96 kts 246°
2026-04-22 18:16 47.67311 12.36737 5201 ft 96 kts 245°
2026-04-22 18:16 47.67051 12.35931 5455 ft 97 kts 248°
2026-04-22 18:16 47.66812 12.34943 5682 ft 110 kts 255°
2026-04-22 18:17 47.66724 12.33889 5866 ft 104 kts 266°
2026-04-22 18:17 47.66601 12.32808 5998 ft 110 kts 262°
2026-04-22 18:17 47.66462 12.31732 6122 ft 109 kts 261°
2026-04-22 18:17 47.66359 12.30621 6122 ft 116 kts 276°
2026-04-22 18:18 47.66381 12.29407 6150 ft 115 kts 259°
2026-04-22 18:18 47.66197 12.28692 6288 ft 107 kts 242°
2026-04-22 18:18 47.66080 12.27706 6488 ft 104 kts 298°
2026-04-22 18:18 47.66920 12.26942 6458 ft 103 kts 319°
2026-04-22 18:19 47.67202 12.26318 6437 ft 117 kts 294°
2026-04-22 18:19 47.67065 12.25059 6185 ft 136 kts 234°
2026-04-22 18:19 47.66335 12.24219 6192 ft 130 kts 206°
2026-04-22 18:19 47.65566 12.23566 6227 ft 126 kts 208°
2026-04-22 18:20 47.64834 12.22836 6218 ft 123 kts 211°
2026-04-22 18:20 47.64144 12.22117 6279 ft 121 kts 213°
2026-04-22 18:20 47.63488 12.21395 6436 ft 114 kts 214°
2026-04-22 18:20 47.62883 12.20694 6620 ft 106 kts 214°
2026-04-22 18:21 47.62309 12.20043 6836 ft 100 kts 214°
2026-04-22 18:21 47.61827 12.19316 6954 ft 107 kts 229°
2026-04-22 18:21 47.61328 12.18490 7100 ft 110 kts 227°
2026-04-22 18:21 47.60795 12.17644 7220 ft 108 kts 220°
2026-04-22 18:22 47.60282 12.16951 7461 ft 97 kts 221°
2026-04-22 18:22 47.59819 12.16272 7669 ft 92 kts 221°
2026-04-22 18:22 47.59362 12.15601 7810 ft 95 kts 223°
2026-04-22 18:22 47.58910 12.14896 8003 ft 92 kts 223°
2026-04-22 18:23 47.58470 12.14228 8245 ft 86 kts 221°
2026-04-22 18:23 47.58017 12.13621 8399 ft 92 kts 219°
2026-04-22 18:23 47.57539 12.12974 8588 ft 93 kts 219°
2026-04-22 18:24 47.56595 12.11709 8948 ft 90 kts 221°
2026-04-22 18:24 47.56108 12.11054 9076 ft 97 kts 220°
2026-04-22 18:24 47.55037 12.09534 9164 ft 109 kts 225°
2026-04-22 18:25 47.54503 12.08699 9158 ft 117 kts 226°
2026-04-22 18:25 47.53942 12.07802 9115 ft 122 kts 224°
2026-04-22 18:25 47.53341 12.06888 9104 ft 122 kts 224°
2026-04-22 18:26 47.52152 12.05089 9115 ft 119 kts 227°
2026-04-22 18:26 47.51608 12.04142 9065 ft 122 kts 229°
2026-04-22 18:26 47.51061 12.03171 9001 ft 125 kts 229°
2026-04-22 18:26 47.50528 12.02185 9007 ft 122 kts 230°
2026-04-22 18:27 47.49986 12.01225 9000 ft 120 kts 228°
2026-04-22 18:27 47.49434 12.00280 8986 ft 120 kts 229°
2026-04-22 18:27 47.48935 11.99297 9029 ft 116 kts 234°
2026-04-22 18:27 47.48489 11.98358 9179 ft 111 kts 235°
2026-04-22 18:28 47.48078 11.97432 9321 ft 105 kts 238°
2026-04-22 18:28 47.47669 11.96445 9061 ft 133 kts 237°
2026-04-22 18:28 47.47153 11.95308 8994 ft 130 kts 235°
2026-04-22 18:28 47.46662 11.94253 9051 ft 122 kts 234°
2026-04-22 18:29 47.46170 11.93221 9037 ft 123 kts 234°
2026-04-22 18:29 47.45674 11.92196 9038 ft 123 kts 233°
2026-04-22 18:29 47.45162 11.91204 9014 ft 123 kts 230°
2026-04-22 18:29 47.44626 11.90223 9015 ft 123 kts 231°
2026-04-22 18:30 47.44101 11.89222 9016 ft 123 kts 232°
2026-04-22 18:30 47.43201 11.87133 9059 ft 122 kts 243°
2026-04-22 18:30 47.42787 11.86076 9139 ft 118 kts 238°
2026-04-22 18:31 47.42363 11.85029 9050 ft 122 kts 240°
2026-04-22 18:31 47.41937 11.83917 8936 ft 123 kts 240°
2026-04-22 18:31 47.41467 11.82908 8977 ft 117 kts 230°
2026-04-22 18:31 47.40952 11.82003 8986 ft 113 kts 227°
2026-04-22 18:32 47.40416 11.81137 8958 ft 114 kts 228°
2026-04-22 18:32 47.39904 11.80267 9027 ft 110 kts 231°
2026-04-22 18:32 47.39410 11.79394 9136 ft 112 kts 234°
2026-04-22 18:32 47.38921 11.78487 9181 ft 118 kts 233°
2026-04-22 18:33 47.38351 11.77496 9006 ft 132 kts 231°
2026-04-22 18:33 47.37803 11.76521 9086 ft 123 kts 229°
2026-04-22 18:33 47.37216 11.75612 9060 ft 123 kts 226°
2026-04-22 18:33 47.36585 11.74732 9069 ft 124 kts 223°
2026-04-22 18:34 47.35931 11.73863 9022 ft 126 kts 224°
2026-04-22 18:34 47.35368 11.72929 9111 ft 119 kts 232°
2026-04-22 18:34 47.34842 11.71982 9180 ft 119 kts 233°
2026-04-22 18:34 47.34308 11.71012 9127 ft 124 kts 232°
2026-04-22 18:35 47.33775 11.70025 9138 ft 121 kts 234°
2026-04-22 18:35 47.33268 11.69009 9073 ft 125 kts 235°
2026-04-22 18:35 47.32767 11.67980 9076 ft 122 kts 236°
2026-04-22 18:35 47.32281 11.66938 9089 ft 123 kts 238°
2026-04-22 18:36 47.31798 11.65886 9064 ft 124 kts 239°
2026-04-22 18:36 47.31350 11.64805 9066 ft 122 kts 240°
2026-04-22 18:36 47.30892 11.63732 9046 ft 122 kts 238°
2026-04-22 18:36 47.30415 11.62656 8994 ft 125 kts 239°
2026-04-22 18:37 47.29949 11.61551 8940 ft 127 kts 239°
2026-04-22 18:37 47.29503 11.60498 9055 ft 118 kts 239°
2026-04-22 18:37 47.29051 11.59486 9065 ft 121 kts 237°
2026-04-22 18:37 47.28574 11.58475 9097 ft 120 kts 236°
2026-04-22 18:38 47.28101 11.57460 9084 ft 121 kts 236°
2026-04-22 18:38 47.27636 11.56430 9104 ft 118 kts 239°
2026-04-22 18:38 47.27207 11.55417 9034 ft 117 kts 239°
2026-04-22 18:39 47.26365 11.53459 8975 ft 113 kts 239°
2026-04-22 18:39 47.25892 11.52438 8922 ft 122 kts 236°
2026-04-22 18:39 47.25432 11.51414 8974 ft 117 kts 239°
2026-04-22 18:39 47.25003 11.50399 9069 ft 116 kts 239°
2026-04-22 18:40 47.24536 11.49413 9145 ft 117 kts 229°
2026-04-22 18:40 47.23993 11.48543 9130 ft 118 kts 227°
2026-04-22 18:40 47.23405 11.47663 9122 ft 119 kts 225°
2026-04-22 18:40 47.22828 11.46847 9215 ft 114 kts 223°
2026-04-22 18:41 47.22206 11.46012 9138 ft 124 kts 225°
2026-04-22 18:41 47.21564 11.45135 9084 ft 126 kts 224°
2026-04-22 18:41 47.20912 11.44278 8994 ft 131 kts 224°
2026-04-22 18:41 47.20221 11.43425 8938 ft 127 kts 222°
2026-04-22 18:42 47.19421 11.42804 8706 ft 139 kts 194°
2026-04-22 18:42 47.18515 11.42690 8879 ft 114 kts 177°
2026-04-22 18:42 47.17757 11.42767 9034 ft 110 kts 172°
2026-04-22 18:42 47.17015 11.42964 9171 ft 109 kts 164°
2026-04-22 18:43 47.16262 11.43238 9229 ft 114 kts 163°
2026-04-22 18:43 47.15478 11.43530 9181 ft 122 kts 163°
2026-04-22 18:43 47.14649 11.43864 9172 ft 123 kts 164°
2026-04-22 18:43 47.13821 11.44216 9099 ft 124 kts 156°
2026-04-22 18:44 47.13012 11.44636 9067 ft 121 kts 155°
2026-04-22 18:44 47.12242 11.45173 8965 ft 126 kts 150°
2026-04-22 18:44 47.11451 11.45731 8908 ft 126 kts 152°
2026-04-22 18:44 47.10673 11.46301 8879 ft 121 kts 149°
2026-04-22 18:45 47.09949 11.46751 9007 ft 106 kts 158°
2026-04-22 18:45 47.09227 11.47079 9061 ft 112 kts 162°
2026-04-22 18:45 47.08465 11.47331 9193 ft 114 kts 166°
2026-04-22 18:45 47.07664 11.47525 9223 ft 118 kts 170°
2026-04-22 18:46 47.06832 11.47670 9234 ft 120 kts 172°
2026-04-22 18:46 47.06034 11.47744 9431 ft 109 kts 176°
2026-04-22 18:46 47.05282 11.47770 9592 ft 106 kts 174°
2026-04-22 18:46 47.04575 11.47831 9731 ft 105 kts 172°
2026-04-22 18:47 47.03853 11.47913 9893 ft 105 kts 175°
2026-04-22 18:47 47.03115 11.47946 10064 ft 104 kts 175°
2026-04-22 18:47 47.02382 11.47900 10156 ft 109 kts 187°
2026-04-22 18:47 47.01636 11.47752 10334 ft 105 kts 185°
2026-04-22 18:48 47.00899 11.47693 10471 ft 108 kts 178°
2026-04-22 18:48 47.00161 11.47721 10663 ft 107 kts 180°
2026-04-22 18:48 46.99386 11.47695 10785 ft 109 kts 178°
2026-04-22 18:48 46.98635 11.47674 10907 ft 111 kts 178°
2026-04-22 18:49 46.97830 11.47610 10814 ft 127 kts 187°
2026-04-22 18:49 46.96965 11.47250 10745 ft 130 kts 202°
2026-04-22 18:49 46.96147 11.46729 10786 ft 124 kts 204°
2026-04-22 18:49 46.95386 11.46224 10782 ft 124 kts 209°
2026-04-22 18:50 46.94613 11.45654 10796 ft 122 kts 208°
2026-04-22 18:50 46.93836 11.45032 10628 ft 133 kts 211°
2026-04-22 18:50 46.93045 11.44362 10548 ft 133 kts 213°
2026-04-22 18:50 46.92259 11.43721 10546 ft 130 kts 207°
2026-04-22 18:51 46.91438 11.43199 10472 ft 130 kts 204°
2026-04-22 18:51 46.90922 11.42887 10424 ft 131 kts 202°
2026-04-22 18:52 46.90642 11.42731 10395 ft 132 kts 201°
2026-04-22 18:53 46.89766 11.42323 10318 ft 131 kts 197°
2026-04-22 18:53 46.88913 11.41865 10226 ft 132 kts 206°
2026-04-22 18:53 46.88108 11.41203 10117 ft 132 kts 219°
2026-04-22 18:53 46.87378 11.40390 10034 ft 130 kts 220°
2026-04-22 18:54 46.86656 11.39592 9906 ft 131 kts 220°
2026-04-22 18:54 46.85930 11.38759 9662 ft 134 kts 222°
2026-04-22 18:54 46.85310 11.37768 9513 ft 132 kts 238°
2026-04-22 18:54 46.84770 11.36709 9458 ft 130 kts 238°
2026-04-22 18:55 46.84238 11.35624 9376 ft 129 kts 238°
2026-04-22 18:55 46.83712 11.34568 9257 ft 135 kts 238°
2026-04-22 18:55 46.83162 11.33476 9240 ft 131 kts 237°
2026-04-22 18:55 46.82679 11.32405 9027 ft 137 kts 242°
2026-04-22 18:56 46.82141 11.31166 8631 ft 147 kts 240°
2026-04-22 18:56 46.81654 11.29861 8277 ft 147 kts 246°
2026-04-22 18:56 46.81198 11.28562 8118 ft 141 kts 245°
2026-04-22 18:56 46.80722 11.27313 7718 ft 145 kts 243°
2026-04-22 18:57 46.80247 11.26055 7508 ft 139 kts 245°
2026-04-22 18:57 46.79868 11.24697 7150 ft 144 kts 244°
2026-04-22 18:57 46.79143 11.23732 6943 ft 140 kts 206°
2026-04-22 18:57 46.78215 11.23295 6787 ft 140 kts 192°
2026-04-22 18:58 46.77276 11.22928 6541 ft 141 kts 198°
2026-04-22 18:58 46.76353 11.22458 6356 ft 136 kts 203°
2026-04-22 18:58 46.75524 11.22118 6464 ft 118 kts 182°
2026-04-22 18:58 46.74675 11.22018 6321 ft 122 kts 189°
2026-04-22 18:59 46.73794 11.21915 6144 ft 128 kts 180°
2026-04-22 18:59 46.72883 11.21796 5879 ft 134 kts 188°
2026-04-22 18:59 46.71980 11.21502 5697 ft 131 kts 198°
2026-04-22 18:59 46.71191 11.20978 5624 ft 127 kts 204°
2026-04-22 19:00 46.70344 11.20546 5426 ft 127 kts 193°
2026-04-22 19:00 46.69490 11.20330 5281 ft 124 kts 187°
2026-04-22 19:00 46.68642 11.20178 5144 ft 122 kts 186°
2026-04-22 19:00 46.67803 11.20027 5033 ft 120 kts 185°
2026-04-22 19:01 46.66978 11.19909 4943 ft 119 kts 184°
2026-04-22 19:01 46.66177 11.19812 4899 ft 115 kts 185°
2026-04-22 19:01 46.65370 11.19670 4803 ft 116 kts 189°
2026-04-22 19:01 46.64606 11.19405 4747 ft 113 kts 194°
2026-04-22 19:02 46.63843 11.19076 4620 ft 116 kts 194°
2026-04-22 19:02 46.63068 11.18799 4615 ft 114 kts 193°
2026-04-22 19:02 46.62269 11.18566 4507 ft 117 kts 186°
2026-04-22 19:02 46.61466 11.18662 4412 ft 117 kts 167°
2026-04-22 19:03 46.60658 11.18769 4296 ft 116 kts 177°
2026-04-22 19:03 46.59901 11.19129 4193 ft 119 kts 150°
2026-04-22 19:03 46.59238 11.19756 4155 ft 113 kts 147°
2026-04-22 19:03 46.58568 11.20415 4039 ft 115 kts 147°
2026-04-22 19:04 46.57937 11.21107 3992 ft 113 kts 145°
2026-04-22 19:04 46.57310 11.21780 3918 ft 115 kts 146°
2026-04-22 19:04 46.56638 11.22434 3830 ft 114 kts 149°
2026-04-22 19:04 46.55956 11.23006 3746 ft 113 kts 153°
2026-04-22 19:05 46.55265 11.23513 3679 ft 111 kts 156°
2026-04-22 19:05 46.54596 11.24090 3610 ft 113 kts 142°
2026-04-22 19:05 46.54019 11.24850 3607 ft 113 kts 140°
2026-04-22 19:05 46.53438 11.25608 3557 ft 111 kts 141°
2026-04-22 19:06 46.52897 11.26401 3539 ft 110 kts 133°
2026-04-22 19:06 46.52423 11.27136 3773 ft 93 kts 140°
2026-04-22 19:06 46.52087 11.28044 3555 ft 110 kts 113°
2026-04-22 19:07 46.51407 11.29604 3561 ft 113 kts 130°
2026-04-22 19:07 46.50941 11.30466 3339 ft 109 kts 126°
2026-04-22 19:07 46.50562 11.31474 3034 ft 115 kts 115°
2026-04-22 19:07 46.50353 11.32865 2687 ft 100 kts 134°
2026-04-22 19:08 46.50030 11.33364 2542 ft 87 kts 137°
2026-04-22 19:08 46.49612 11.33639 2524 ft 63 kts 185°
2026-04-22 19:08 46.49148 11.33579 2280 ft 66 kts 186°
2026-04-22 19:08 46.48674 11.33488 2015 ft 71 kts 190°
2026-04-22 19:09 46.48266 11.33240 1900 ft 55 kts 180°
2026-04-22 19:09 46.47855 11.33250 1605 ft 67 kts 194°
2026-04-22 19:09 46.47454 11.33114 1415 ft 59 kts 221°
2026-04-22 19:09 46.47063 11.32940 1205 ft 60 kts 184°
2026-04-22 19:10 46.46564 11.32799 798 ft 71 kts 189°
2026-04-22 19:10 46.46172 11.32695 787 ft 46 kts 191°
2026-04-22 19:10 46.45898 11.32612 782 ft 29 kts 190°
2026-04-22 19:10 46.45849 11.32507 781 ft 0 kts 278°